Change the Weather History Date:

Friday, May 31, 2013

  Actual Average (KBIS) Record (KBIS)
Temperature  
Mean Temperature 55 °F 60 °F  
Max Temperature 62 °F 73 °F 92 °F (1986)
Min Temperature 48 °F 48 °F 27 °F (1964)
Degree Days  
Heating Degree Days 10 6  
Month to date heating degree days 310  
Since 1 July heating degree days 8465  
Cooling Degree Days 0 1  
Month to date cooling degree days 16  
Year to date cooling degree days 17  
Growing Degree Days 5 (Base 50)    
Moisture  
Dew Point 56 °F    
Average Humidity 100    
Maximum Humidity 100    
Minimum Humidity 100    
Precipitation  
Precipitation 0.40 in 0.09 in 1.18 in (1949)
Month to date precipitation 2.40  
Year to date precipitation 5.47  
Snow  
Snow 0.00 in 0.00 in 0.00 in (2002)
Month to date snowfall 0.4  
Since 1 July snowfall 51.2  
Snow Depth -    
Sea Level Pressure  
Sea Level Pressure 29.48 in    
Wind  
Wind Speed 13 mph (NNE)    
Max Wind Speed 25 mph    
Max Gust Speed 36 mph    
Visibility 8 miles    
Events Rain , Thunderstorm    
T = Trace of Precipitation, MM = Missing Value Source: NWS Daily Summary

Daily Weather History Graph

Daily Weather History Graph

Search for Another Location

Airport or City:

Trip Planner

Search our weather history database for the weather conditions in past years. The results will help you decide how hot, cold, wet, or windy it might be!

Date:

Astronomy

May. 31, 2013 Rise Set
Actual Time 5:53 AM CDT 9:29 PM CDT
Civil Twilight 5:15 AM CDT 10:07 PM CDT
Nautical Twilight 4:24 AM CDT 10:58 PM CDT
Astronomical Twilight 3:16 AM CDT 12:08 AM CDT
Moon 1:46 AM CDT (5/31) 1:31 PM CDT (5/31)
Length of Visible Light 16h 52m
Length of Day
15h 35m
Waning Gibbous, 51% of the Moon is Illuminated
May 31
Waning Gibbous
May 31
Last Quarter
Jun 8
New
Jun 16
First Quarter
Jun 23
Full

Hourly Weather History & Observations

Time (CDT) Temp. Dew Point Humidity Pressure Visibility Wind Dir Wind Speed Gust Speed Precip Events Conditions
12:15 AM 62.6 °F 62.6 °F 100% 29.34 in 10.0 mi ENE 8.1 mph - N/A   Overcast
12:35 AM 62.6 °F 62.6 °F 100% 29.34 in 10.0 mi NE 8.1 mph - N/A   Mostly Cloudy
12:55 AM 62.6 °F 62.6 °F 100% 29.35 in 10.0 mi ENE 5.8 mph - N/A   Mostly Cloudy
1:15 AM 62.6 °F 62.6 °F 100% 29.35 in 10.0 mi ENE 9.2 mph - N/A   Mostly Cloudy
1:35 AM 62.6 °F 62.6 °F 100% 29.34 in 10.0 mi ENE 10.4 mph - N/A   Mostly Cloudy
1:55 AM 62.6 °F 62.6 °F 100% 29.34 in 10.0 mi ENE 6.9 mph - N/A   Scattered Clouds
2:15 AM 60.8 °F 60.8 °F 100% 29.34 in 10.0 mi ENE 6.9 mph - N/A   Partly Cloudy
2:35 AM 60.8 °F 60.8 °F 100% 29.34 in 10.0 mi ENE 8.1 mph - N/A   Partly Cloudy
2:55 AM 60.8 °F 60.8 °F 100% 29.34 in 10.0 mi ENE 6.9 mph - N/A   Partly Cloudy
3:15 AM 60.8 °F 60.8 °F 100% 29.34 in 10.0 mi ENE 11.5 mph - N/A   Mostly Cloudy
3:35 AM 60.8 °F 60.8 °F 100% 29.33 in 10.0 mi ENE 9.2 mph - N/A   Scattered Clouds
3:55 AM 59.0 °F 59.0 °F 100% 29.33 in 10.0 mi East 9.2 mph - N/A Thunderstorm Scattered Clouds
4:15 AM 60.8 °F 60.8 °F 100% 29.33 in 10.0 mi ENE 15.0 mph - N/A   Overcast
4:35 AM 59.0 °F 59.0 °F 100% 29.33 in 10.0 mi ENE 20.7 mph 26.5 mph N/A   Overcast
4:55 AM 59.0 °F 59.0 °F 100% 29.33 in 10.0 mi ENE 15.0 mph 27.6 mph N/A   Scattered Clouds
5:15 AM 59.0 °F 59.0 °F 100% 29.33 in 10.0 mi East 18.4 mph 26.5 mph N/A   Scattered Clouds
5:35 AM 59.0 °F 59.0 °F 100% 29.34 in 10.0 mi ENE 11.5 mph 24.2 mph N/A   Scattered Clouds
5:55 AM 59.0 °F 59.0 °F 100% 29.35 in 10.0 mi ENE 8.1 mph - N/A   Overcast
6:15 AM 59.0 °F 59.0 °F 100% 29.35 in 10.0 mi North 8.1 mph - N/A   Overcast
6:35 AM 57.2 °F 57.2 °F 100% 29.35 in 10.0 mi North 9.2 mph - N/A   Overcast
6:55 AM 57.2 °F 57.2 °F 100% 29.35 in 10.0 mi North 6.9 mph - N/A   Mostly Cloudy
7:15 AM 57.2 °F 57.2 °F 100% 29.35 in 10.0 mi North 8.1 mph - N/A   Mostly Cloudy
7:35 AM 57.2 °F 57.2 °F 100% 29.36 in 10.0 mi North 6.9 mph - N/A Rain Light Rain
7:55 AM 57.2 °F 57.2 °F 100% 29.36 in 7.0 mi North 8.1 mph - N/A Rain Light Rain
8:15 AM 57.2 °F 57.2 °F 100% 29.37 in 5.0 mi North 8.1 mph - N/A Rain Light Rain
8:35 AM 57.2 °F 57.2 °F 100% 29.38 in 10.0 mi North 6.9 mph - N/A   Overcast
8:55 AM 57.2 °F 57.2 °F 100% 29.37 in 8.0 mi North 9.2 mph - 0.01 in Rain Light Rain
9:15 AM 57.2 °F 57.2 °F 100% 29.37 in 2.5 mi North 8.1 mph 16.1 mph 0.04 in Rain Light Rain
9:35 AM 57.2 °F 57.2 °F 100% 29.38 in 5.0 mi NNE 16.1 mph 21.9 mph 0.09 in Rain Light Rain
9:55 AM 55.4 °F 55.4 °F 100% 29.39 in 10.0 mi North 13.8 mph - 0.09 in   Overcast
10:15 AM 55.4 °F 55.4 °F 100% 29.39 in 10.0 mi North 15.0 mph 20.7 mph N/A   Overcast
10:35 AM 55.4 °F 55.4 °F 100% 29.40 in 10.0 mi NNE 12.7 mph - N/A   Overcast
10:55 AM 55.4 °F 55.4 °F 100% 29.40 in 10.0 mi North 16.1 mph - N/A   Overcast
11:15 AM 55.4 °F 55.4 °F 100% 29.41 in 9.0 mi North 18.4 mph 23.0 mph N/A   Overcast
11:35 AM 53.6 °F 53.6 °F 100% 29.42 in 10.0 mi North 16.1 mph 21.9 mph N/A   Overcast
11:55 AM 53.6 °F 53.6 °F 100% 29.43 in 10.0 mi North 13.8 mph - N/A   Mostly Cloudy
12:15 PM 55.4 °F 55.4 °F 100% 29.43 in 6.0 mi North 17.3 mph - N/A Rain Light Rain
12:35 PM 53.6 °F 53.6 °F 100% 29.44 in 3.0 mi North 17.3 mph 24.2 mph N/A Rain Light Rain
12:55 PM 53.6 °F 53.6 °F 100% 29.45 in 2.0 mi North 17.3 mph 23.0 mph N/A   Scattered Clouds
1:15 PM 53.6 °F 53.6 °F 100% 29.46 in 3.0 mi North 16.1 mph - N/A Rain Light Rain
1:35 PM 53.6 °F 53.6 °F 100% 29.47 in 2.0 mi North 16.1 mph - N/A Thunderstorm Scattered Clouds
1:55 PM 53.6 °F 53.6 °F 100% 29.47 in 3.0 mi NNW 17.3 mph - 0.04 in Rain Light Rain
2:15 PM 55.4 °F 55.4 °F 100% 29.47 in 2.0 mi North 13.8 mph - 0.05 in Rain Rain
2:35 PM 55.4 °F 55.4 °F 100% 29.48 in 5.0 mi North 15.0 mph - 0.08 in Rain Light Rain
2:55 PM 55.4 °F 55.4 °F 100% 29.49 in 7.0 mi North 13.8 mph - 0.08 in Rain Light Rain
3:15 PM 55.4 °F 55.4 °F 100% 29.50 in 10.0 mi North 12.7 mph - N/A   Mostly Cloudy
3:35 PM 55.4 °F 55.4 °F 100% 29.51 in 5.0 mi North 12.7 mph - N/A Rain Light Rain
3:55 PM 55.4 °F 55.4 °F 100% 29.51 in 3.0 mi North 16.1 mph 19.6 mph 0.02 in Rain Light Rain
4:15 PM 55.4 °F 55.4 °F 100% 29.52 in 2.0 mi North 15.0 mph 21.9 mph N/A Rain Light Rain
4:35 PM 55.4 °F 55.4 °F 100% 29.53 in 7.0 mi North 17.3 mph 23.0 mph N/A   Overcast
4:55 PM 55.4 °F 55.4 °F 100% 29.55 in 9.0 mi North 23.0 mph 29.9 mph N/A   Overcast
5:15 PM 55.4 °F 55.4 °F 100% 29.56 in 7.0 mi NNE 20.7 mph 29.9 mph N/A   Overcast
5:35 PM 53.6 °F 53.6 °F 100% 29.57 in 8.0 mi North 21.9 mph 28.8 mph N/A   Overcast
5:55 PM 53.6 °F 53.6 °F 100% 29.59 in 10.0 mi NNE 18.4 mph 28.8 mph N/A   Overcast
6:15 PM 53.6 °F 53.6 °F 100% 29.60 in 10.0 mi North 21.9 mph 33.4 mph N/A   Overcast
6:35 PM 53.6 °F 53.6 °F 100% 29.62 in 10.0 mi NNE 20.7 mph 29.9 mph N/A   Overcast
6:55 PM 51.8 °F 51.8 °F 100% 29.63 in 10.0 mi NNE 23.0 mph 29.9 mph N/A   Overcast
7:15 PM 51.8 °F 51.8 °F 100% 29.64 in 10.0 mi North 19.6 mph 32.2 mph N/A   Overcast
7:35 PM 51.8 °F 51.8 °F 100% 29.65 in 10.0 mi NNE 23.0 mph 32.2 mph N/A   Overcast
7:55 PM 51.8 °F 51.8 °F 100% 29.67 in 10.0 mi North 23.0 mph 28.8 mph N/A   Overcast
8:15 PM 50.0 °F 50.0 °F 100% 29.68 in 1.5 mi NNE 16.1 mph 32.2 mph 0.11 in Rain Rain
8:35 PM 50.0 °F 50.0 °F 100% 29.70 in 8.0 mi North 18.4 mph 35.7 mph 0.11 in   Overcast
8:55 PM 50.0 °F 50.0 °F 100% 29.71 in 7.0 mi North 21.9 mph 29.9 mph 0.11 in   Overcast
9:15 PM 50.0 °F 50.0 °F 100% 29.72 in 9.0 mi North 19.6 mph 31.1 mph N/A   Overcast
9:35 PM 50.0 °F 50.0 °F 100% 29.73 in 10.0 mi North 19.6 mph 28.8 mph N/A   Overcast
9:55 PM 50.0 °F 50.0 °F 100% 29.75 in 10.0 mi North 25.3 mph 31.1 mph N/A   Overcast
10:15 PM 48.2 °F 48.2 °F 100% 29.76 in 8.0 mi North 24.2 mph 31.1 mph N/A Rain Light Rain
10:35 PM 48.2 °F 48.2 °F 100% 29.78 in 10.0 mi North 21.9 mph 28.8 mph N/A   Overcast
10:55 PM 48.2 °F 48.2 °F 100% 29.79 in 10.0 mi North 19.6 mph 26.5 mph N/A   Overcast
11:15 PM 48.2 °F 48.2 °F 100% 29.80 in 10.0 mi North 23.0 mph 27.6 mph N/A Rain Light Rain
11:35 PM 48.2 °F 48.2 °F 100% 29.81 in 5.0 mi North 23.0 mph 33.4 mph 0.02 in Rain Light Rain
11:55 PM 48.2 °F 48.2 °F 100% 29.82 in 5.0 mi North 21.9 mph 28.8 mph 0.05 in Rain Rain